Wind_Speed
8 9 9 8 8 8 9 9 9 9 10 10 10 10 10 10 10 11 11 10 9 9 9 8 9 9 9 9 9 9 9 9 9 10 10 11 11 12 13 13 12 12 12
9 10 10 9 9 9 10 10 11 11 11 11 11 11 11 11 11 12 11 10 10 10 10 10 10 10 10 10 10 10 10 10 10 11 12 12 12 13 13 14 14 14 14
11 11 11 10 11 10 11 11 11 12 12 12 12 12 12 12 12 12 12 11 11 11 11 11 11 11 11 11 11 11 12 12 12 13 13 13 13 14 14 15 15 15 15
12 12 12 11 12 12 12 12 12 12 13 13 13 13 12 13 13 13 13 12 12 12 12 12 12 13 12 13 13 13 13 13 14 14 14 14 14 15 15 16 16 16 16
14 13 13 13 13 13 13 13 13 13 13 14 14 13 13 13 14 14 14 13 13 13 14 14 14 14 13 13 14 14 14 14 15 15 14 15 15 16 16 16 17 17 17
15 15 15 14 14 14 14 14 14 14 14 14 15 15 14 15 15 15 15 14 15 15 15 15 15 15 15 15 15 15 15 15 16 16 16 16 16 17 17 17 17 17 17
17 16 15 15 15 15 15 15 15 16 15 16 16 16 15 16 16 16 16 15 15 16 16 16 16 16 16 16 16 16 16 16 16 17 16 16 16 17 18 18 18 18 18
18 18 16 16 16 16 16 16 17 17 17 17 17 16 16 16 16 16 16 16 16 16 17 17 18 18 18 17 17 17 17 17 17 17 16 17 17 17 19 19 19 19 18
18 18 18 17 17 17 17 17 18 19 18 17 17 17 17 18 17 17 17 17 17 17 17 18 18 19 18 18 17 17 18 18 18 18 18 17 17 18 19 20 20 19 19
19 19 19 19 19 18 18 18 19 19 18 18 18 18 18 19 19 18 18 19 19 18 18 18 18 19 19 19 19 19 19 20 19 19 19 18 18 18 19 19 20 20 20
19 20 20 21 21 20 20 20 20 20 19 19 19 19 19 19 20 19 19 20 20 20 19 19 19 19 20 20 20 20 20 21 20 20 20 20 19 19 19 19 20 20 19
20 21 21 21 21 21 21 22 21 21 21 21 21 20 21 21 21 21 21 21 21 21 20 20 20 20 20 21 20 20 20 21 21 21 21 21 20 20 20 20 20 21 20
21 21 22 22 22 22 23 23 23 23 23 22 22 22 22 23 23 23 22 22 22 22 22 22 21 22 21 22 21 21 21 21 21 21 21 22 22 22 22 22 21 21 21
22 22 23 24 24 25 25 24 25 25 25 23 23 24 24 23 24 24 24 23 23 23 23 22 22 21 22 22 22 22 21 20 21 21 22 22 23 23 23 22 22 22 22
23 23 24 24 24 26 26 25 27 26 26 25 25 25 25 25 24 25 25 25 25 24 24 23 22 22 22 22 23 23 22 20 20 21 22 22 22 22 23 23 22 22 23
24 24 25 25 26 26 26 26 27 26 26 27 26 26 27 27 26 26 26 25 25 26 25 23 23 23 23 23 22 23 23 21 20 21 21 21 22 22 23 24 24 23 24
25 26 26 27 26 26 25 26 27 26 27 27 27 27 27 27 27 27 26 26 26 26 25 24 24 23 23 23 22 22 22 22 22 22 21 21 22 22 22 23 24 24 24
26 27 27 27 27 27 27 26 27 27 27 27 28 27 26 27 28 27 27 25 25 25 25 24 24 23 23 23 23 22 22 23 23 22 23 22 22 23 23 23 24 24 24
27 27 27 28 28 28 28 28 28 27 28 27 27 27 27 26 26 26 25 24 24 25 25 24 23 23 23 23 23 23 23 23 23 22 22 23 23 23 23 23 24 24 25
28 28 28 28 29 29 29 29 29 29 28 27 27 26 26 26 26 24 24 24 24 24 24 24 24 23 23 23 24 24 24 24 23 23 23 23 24 25 24 24 24 25 26
28 29 29 29 30 30 30 30 30 29 28 27 26 25 26 26 26 25 25 24 24 24 24 24 24 24 24 24 24 24 25 24 24 24 24 24 24 25 24 25 25 26 26
28 29 29 29 29 30 31 31 31 30 28 27 26 26 25 25 25 25 26 25 24 23 23 24 24 24 25 24 24 24 24 24 25 25 25 25 25 25 25 25 25 26 27
29 29 29 29 30 31 31 31 30 29 28 28 27 27 26 25 26 26 26 24 22 22 22 24 24 24 25 25 24 24 24 24 24 25 26 26 26 25 25 27 27 27 28
29 29 29 29 30 31 31 30 30 29 28 28 27 26 26 26 26 26 25 24 23 22 22 23 24 24 25 26 25 24 24 25 25 25 26 26 26 26 26 26 27 28 29
29 30 30 29 29 30 30 30 30 29 28 27 26 26 26 25 26 25 24 23 23 23 23 23 24 25 25 25 25 25 26 25 26 27 26 27 27 27 27 27 28 28 29
30 30 30 30 30 30 30 29 29 28 27 26 25 25 25 25 25 24 24 24 24 24 24 24 24 24 24 25 25 25 26 26 27 27 26 26 26 27 27 27 28 28 28
Wind_Direction
330 336 330 327 323 320 315 311 309 305 304 303 302 302 302 301 299 296 291 289 284 279 278 278 278 276 272 270 268 264 260 260 260 257 254 251 248 245 244 245 246 245 243
331 332 328 327 324 321 317 311 307 303 302 301 300 302 301 299 298 296 291 288 284 279 278 278 277 275 272 270 268 265 262 261 260 259 258 256 253 250 248 247 248 246 245
328 325 324 323 319 319 318 313 309 305 302 299 299 301 300 299 298 296 293 289 285 280 278 277 278 275 272 271 270 267 264 263 261 260 260 258 256 254 251 249 248 246 245
326 325 325 322 319 320 320 315 311 307 303 300 299 300 300 298 296 294 292 289 286 282 279 278 277 275 272 270 269 267 265 263 261 261 260 259 257 255 253 250 249 248 247
325 327 323 322 319 319 318 314 310 307 304 302 300 299 299 298 296 296 293 290 287 284 281 280 278 277 274 271 268 267 267 264 263 261 260 258 255 255 254 254 252 251 249
323 324 319 318 318 315 311 308 306 304 303 301 299 298 298 298 297 295 294 291 289 286 282 280 278 276 274 273 270 269 268 266 263 261 259 257 258 257 258 258 255 254 252
322 321 316 315 313 312 308 306 304 302 303 303 301 299 297 296 296 295 294 293 291 288 283 279 278 278 276 276 271 269 268 267 265 265 262 258 256 257 258 257 256 255 253
320 319 314 312 311 310 309 307 304 302 302 301 301 300 298 295 294 294 294 293 292 290 287 281 278 278 276 276 274 270 267 264 264 265 263 261 260 258 257 255 253 254 252
317 316 314 312 310 308 308 307 303 304 301 298 298 298 297 296 294 291 292 293 291 289 288 285 281 279 278 276 276 272 267 265 263 264 263 263 263 261 258 255 253 253 252
315 314 313 311 308 306 305 304 302 303 302 299 297 296 295 293 292 290 291 291 290 289 288 286 284 281 278 277 277 274 268 266 264 263 264 264 265 262 260 257 255 254 252
311 311 312 310 306 304 303 303 302 300 300 298 297 296 296 295 292 290 290 290 290 288 288 286 284 283 280 277 276 276 271 266 265 266 264 263 265 265 263 260 258 255 253
310 310 310 309 307 305 303 302 301 299 297 298 297 296 296 295 292 290 288 289 289 288 288 288 286 284 280 278 279 277 272 269 267 266 263 263 264 266 265 263 260 257 255
309 309 308 306 307 304 302 301 301 299 297 296 296 294 295 294 292 289 288 289 289 288 288 287 288 286 283 280 279 277 272 269 267 266 266 264 262 265 266 264 260 258 255
309 307 305 304 304 302 299 301 300 299 299 298 297 295 294 293 291 289 287 288 288 288 288 284 286 285 286 282 279 278 275 272 267 266 267 265 264 263 265 264 260 258 256
309 309 307 304 303 304 301 301 300 297 296 295 295 294 294 293 291 291 289 287 287 288 288 284 284 284 284 282 281 281 279 275 271 269 270 268 267 265 265 264 261 258 256
311 310 308 307 307 306 303 300 301 299 296 293 292 293 292 292 292 290 290 289 287 287 287 287 283 281 283 283 282 281 277 276 272 271 272 270 268 266 264 264 262 260 257
311 310 309 308 307 306 305 305 302 300 297 295 293 291 292 292 290 292 292 289 289 286 285 287 284 281 280 281 280 280 277 278 276 272 273 273 270 267 266 264 262 261 260
310 309 308 307 307 306 304 303 302 298 296 295 293 292 292 293 291 291 290 288 287 287 287 287 284 281 282 280 279 279 279 280 278 275 273 272 271 268 266 266 262 260 260
309 308 308 307 306 305 304 302 301 299 297 295 294 292 292 292 291 289 289 288 288 287 288 288 286 282 282 281 280 278 277 278 278 275 273 274 272 270 268 266 262 260 261
308 308 308 307 305 305 305 303 302 301 298 292 293 295 294 292 292 290 288 288 288 286 286 288 287 284 283 282 280 279 277 276 275 274 273 274 274 271 267 265 262 261 261
308 308 308 306 305 306 304 304 303 299 297 295 294 297 295 292 293 293 289 289 287 285 285 286 286 286 285 285 281 279 276 274 274 272 273 273 274 272 267 266 265 262 261
310 310 308 306 305 306 305 304 303 300 297 296 297 297 298 296 295 293 290 287 286 284 283 284 286 287 286 285 283 280 277 274 275 275 274 274 273 272 270 269 268 265 263
311 311 309 307 307 306 306 305 303 299 296 295 294 295 297 297 293 290 290 286 287 285 285 284 286 288 287 285 284 282 279 276 275 275 275 274 272 270 269 269 268 267 266
310 311 310 309 308 307 306 306 304 302 298 294 294 294 295 295 293 290 289 285 286 288 286 285 286 287 290 287 285 283 280 278 276 275 274 273 272 272 272 271 268 269 268
311 311 311 310 308 307 306 306 304 302 299 295 293 293 293 293 293 292 289 286 286 286 286 286 287 289 290 289 286 284 281 279 281 278 274 272 272 273 274 273 271 270 269
312 312 311 310 308 307 306 305 303 301 298 295 293 293 292 292 291 291 289 288 288 290 290 289 288 289 290 289 288 286 284 282 281 279 277 276 275 272 272 272 272 271 271
Height
5885 5884 5883 5882 5881 5881 5880 5879 5878 5877 5876 5875 5874 5873 5872 5872 5871 5870 5869 5869 5868 5868 5868 5867 5867 5867 5867 5867 5867 5867 5867 5867 5868 5868 5869 5869 5870 5870 5871 5872 5873 5874 5875
5884 5883 5882 5881 5880 5879 5878 5877 5876 5875 5875 5874 5873 5872 5871 5870 5869 5868 5867 5867 5867 5866 5866 5865 5865 5865 5865 5865 5864 5865 5865 5865 5865 5866 5866 5867 5867 5868 5869 5870 5871 5872 5873
5883 5882 5881 5880 5879 5878 5877 5876 5874 5874 5873 5872 5871 5870 5869 5868 5867 5866 5865 5865 5864 5864 5863 5863 5863 5862 5862 5862 5862 5862 5863 5863 5863 5863 5864 5864 5865 5866 5866 5867 5868 5869 5870
5882 5881 5880 5878 5877 5876 5875 5874 5873 5872 5871 5870 5869 5868 5867 5866 5865 5864 5863 5863 5862 5861 5861 5861 5860 5860 5860 5860 5860 5860 5860 5860 5860 5860 5861 5862 5862 5863 5864 5865 5865 5866 5867
5880 5880 5878 5877 5875 5874 5873 5872 5871 5870 5868 5867 5866 5865 5864 5864 5863 5862 5861 5860 5859 5859 5859 5858 5858 5857 5857 5857 5857 5857 5857 5857 5857 5857 5858 5858 5858 5859 5860 5861 5862 5863 5864
5878 5878 5876 5875 5873 5872 5871 5869 5868 5867 5866 5865 5864 5863 5862 5861 5860 5859 5858 5857 5857 5856 5855 5855 5855 5854 5854 5854 5854 5854 5854 5854 5854 5854 5854 5855 5855 5856 5857 5858 5859 5860 5861
5876 5875 5874 5872 5871 5870 5868 5867 5866 5864 5863 5862 5861 5860 5859 5858 5857 5856 5855 5854 5853 5853 5852 5852 5851 5851 5851 5851 5851 5850 5850 5850 5850 5851 5851 5852 5852 5853 5854 5854 5855 5856 5858
5874 5872 5872 5870 5868 5867 5866 5864 5862 5861 5860 5859 5858 5857 5856 5854 5853 5853 5852 5851 5850 5849 5849 5848 5847 5847 5847 5847 5847 5847 5846 5846 5847 5847 5848 5848 5848 5849 5850 5850 5852 5853 5854
5871 5869 5869 5867 5866 5864 5863 5861 5860 5858 5857 5856 5855 5854 5852 5851 5850 5849 5848 5848 5847 5846 5845 5844 5844 5843 5843 5843 5842 5842 5843 5843 5843 5843 5844 5844 5844 5845 5846 5846 5847 5848 5850
5869 5866 5865 5864 5862 5861 5859 5858 5857 5856 5854 5853 5852 5850 5849 5847 5846 5845 5845 5844 5843 5842 5841 5840 5840 5839 5839 5839 5838 5838 5838 5839 5839 5839 5839 5840 5840 5841 5841 5842 5843 5844 5845
5866 5864 5863 5861 5859 5857 5856 5854 5853 5852 5851 5850 5848 5846 5845 5844 5843 5842 5841 5840 5839 5838 5837 5836 5836 5835 5835 5834 5834 5834 5834 5834 5835 5835 5835 5835 5836 5836 5837 5837 5839 5840 5841
5863 5861 5858 5857 5855 5853 5852 5851 5849 5848 5847 5845 5844 5842 5841 5840 5839 5838 5837 5836 5835 5834 5833 5832 5831 5830 5830 5830 5830 5829 5829 5829 5830 5830 5830 5830 5831 5832 5833 5834 5834 5836 5837
5860 5858 5855 5852 5850 5850 5848 5846 5845 5844 5842 5841 5839 5838 5836 5835 5834 5833 5832 5831 5830 5829 5828 5828 5827 5826 5825 5825 5824 5824 5824 5824 5825 5825 5825 5825 5826 5827 5828 5829 5830 5831 5832
5857 5854 5852 5850 5847 5845 5843 5842 5840 5839 5837 5836 5834 5833 5831 5830 5829 5828 5827 5826 5825 5824 5824 5823 5822 5821 5820 5820 5819 5819 5819 5819 5819 5820 5820 5821 5821 5822 5822 5823 5825 5826 5827
5853 5850 5848 5846 5843 5840 5837 5836 5835 5833 5831 5830 5829 5827 5826 5825 5823 5822 5822 5821 5820 5819 5818 5817 5817 5816 5815 5815 5814 5814 5814 5814 5814 5815 5815 5816 5815 5816 5817 5818 5819 5821 5822
5848 5846 5844 5841 5838 5835 5832 5831 5829 5826 5825 5824 5823 5822 5820 5819 5818 5817 5816 5814 5814 5813 5813 5812 5811 5810 5809 5809 5809 5809 5808 5809 5809 5809 5810 5810 5811 5812 5812 5813 5814 5815 5816
5844 5842 5839 5836 5833 5830 5827 5824 5823 5821 5819 5818 5817 5815 5814 5812 5811 5810 5809 5809 5808 5807 5807 5806 5805 5804 5804 5804 5803 5803 5803 5803 5804 5804 5804 5805 5806 5806 5807 5807 5808 5809 5810
5839 5837 5834 5831 5828 5825 5823 5820 5818 5816 5813 5812 5810 5808 5807 5806 5804 5803 5802 5802 5801 5801 5800 5800 5799 5799 5798 5798 5798 5798 5798 5798 5798 5798 5798 5799 5800 5800 5801 5802 5802 5803 5804
5834 5831 5828 5826 5823 5820 5817 5814 5812 5810 5808 5806 5804 5802 5801 5800 5798 5797 5796 5796 5795 5795 5794 5794 5793 5793 5792 5792 5792 5792 5792 5792 5792 5793 5793 5793 5794 5794 5795 5795 5796 5797 5798
5829 5826 5823 5820 5817 5814 5811 5809 5806 5804 5802 5799 5798 5796 5795 5794 5792 5791 5790 5790 5789 5789 5788 5788 5787 5787 5786 5786 5785 5786 5786 5786 5786 5787 5787 5787 5788 5788 5788 5789 5790 5791 5792
5824 5821 5818 5814 5811 5808 5805 5802 5800 5798 5795 5793 5792 5791 5789 5788 5786 5785 5785 5784 5783 5783 5782 5782 5781 5780 5780 5779 5779 5779 5780 5780 5780 5781 5781 5781 5782 5782 5781 5783 5784 5784 5785
5819 5816 5812 5809 5806 5802 5799 5796 5793 5790 5789 5787 5786 5785 5783 5782 5781 5780 5779 5778 5777 5777 5776 5776 5775 5774 5774 5773 5772 5772 5773 5774 5773 5774 5773 5773 5774 5775 5775 5776 5777 5777 5778
5814 5811 5807 5804 5800 5797 5793 5790 5787 5784 5783 5781 5780 5779 5777 5776 5775 5774 5773 5771 5770 5770 5770 5770 5769 5768 5768 5767 5766 5765 5766 5767 5767 5767 5766 5767 5767 5767 5768 5768 5770 5770 5771
5809 5806 5802 5798 5795 5791 5787 5784 5781 5778 5776 5775 5773 5772 5771 5770 5769 5767 5766 5765 5764 5764 5764 5764 5763 5762 5761 5760 5759 5758 5759 5759 5759 5760 5760 5759 5759 5760 5760 5761 5762 5762 5763
5803 5800 5796 5792 5789 5785 5781 5778 5775 5772 5770 5768 5767 5766 5764 5763 5762 5761 5760 5759 5758 5758 5758 5757 5756 5755 5754 5753 5752 5752 5752 5751 5750 5750 5751 5752 5751 5752 5752 5753 5754 5754 5755
5798 5794 5791 5787 5783 5779 5775 5772 5769 5766 5763 5762 5760 5759 5758 5757 5756 5755 5753 5753 5752 5752 5751 5750 5749 5748 5747 5746 5746 5745 5745 5744 5743 5742 5743 5744 5744 5744 5745 5745 5745 5746 5746